Weather Roundup
Issued by NWS Springfield, MO

Home | Current Version | Previous Version | Text Only | Print | Product List | Glossary On
Versions: 1 2 3 4 5 6 7 8 9 10 11 12 13 14 15 16 17 18 19 20 21 22 23 24 25 26 27 28 29 30 31 32 33 34 35 36 37 38 39 40 41 42 43 44 45 46 47 48 49 50
000
NZUS99 KSGF 111607
HRRSGF

HOURLY WEATHER
NATIONAL WEATHER SERVICE SPRINGFIELD MO
1000 AM CST MON DEC 11 2017

......SGF CWA......

CITY           SKY/WX    TMP DP  RH WIND       PRES   REMARKS
SPRINGFIELD    SUNNY     57  18  21 W14       30.01S
JOPLIN         SUNNY     51  21  30 W14       30.08R
WEST PLAINS    SUNNY     52  24  33 SW8G16    30.01F
ROLLA          MOSUNNY   47  22  37 SW16G25   29.92F
OSAGE BEACH    MOSUNNY   52  21  29 W14G20    29.94F
BRANSON        SUNNY     55  18  22 SW10G18   30.06F

......SURROUNDING SGF CWA......

CITY           SKY/WX    TMP DP  RH WIND       PRES   REMARKS
CHANUTE        SUNNY     50  17  27 NW14      30.08R
PARSONS        SUNNY     51  18  27 NW13      30.10S
COFFEYVILLE    SUNNY     51  19  28 W9        30.10S
EMPORIA        MOSUNNY   49  16  26 W14       30.08R
GROVE OK       SUNNY     55  30  38 SW7       30.09F
ROGERS AR      SUNNY     54  24  31 SW12      30.09F
SILOAM SPRINGS SUNNY     54  22  28 SW12      30.12F
HARRISON AR    SUNNY     63  13  14 W14G26    30.06F
NEAR YELLVILLE SUNNY     49  29  46 SE3       30.06F

......KANSAS AND MISSOURI......

CITY           SKY/WX    TMP DP  RH WIND       PRES   REMARKS
KANSAS CTY INT CLOUDY    47  18  31 W10       29.98R
DOWNTOWN KC    MOSUNNY   50  19  29 W10G20    29.98R
COLUMBIA       SUNNY     50  22  33 W17       29.87F
SEDALIA        SUNNY     49  24  37 W17       29.93F
ST JOSEPH      PTSUNNY   48  21  34 NW20      29.97R
ST LOUIS       PTSUNNY   48  25  40 SW15      29.85F
SPIRIT OF STL  CLOUDY    48  25  40 SW13      29.85F
KIRKSVILLE     CLOUDY    43  22  43 W22G30    29.80F
WICHITA        MOSUNNY   50  13  22 NW16      30.14R
TOPEKA         CLOUDY    45  19  35 W9        30.03R
OLATHE         MOSUNNY   46  18  32 NW22G29   30.00R

......TENNESSEE......

CITY           SKY/WX    TMP DP  RH WIND       PRES   REMARKS
MEMPHIS        SUNNY     52  31  44 SW7       30.15S
NASHVILLE      MOSUNNY   48  29  47 S9        30.11F

......ARKANSAS.......

CITY           SKY/WX    TMP DP  RH WIND       PRES   REMARKS
FAYETTEVILLE   SUNNY     60  18  19 SW13      30.12F
FT SMITH       SUNNY     49  31  49 CALM      30.16F
LITTLE ROCK    SUNNY     54  29  38 SW8       30.15F

......OKLAHOMA.......

CITY           SKY/WX    TMP DP  RH WIND       PRES   REMARKS
TULSA          SUNNY     58  18  21 W9        30.12F
PONCA CITY     SUNNY     46  20  35 VRB5      30.16R
MCALESTER      MOSUNNY   56  25  30 SW5       30.18S
OKLAHOMA CITY  MOSUNNY   56  14  19 NW6       30.19R

......IOWA............

CITY           SKY/WX    TMP DP  RH WIND       PRES   REMARKS
DES MOINES     CLOUDY    44  27  51 NW24G39   29.78R
QUAD CITIES    CLOUDY    38  27  64 SE7       29.73F WCI  33

......ILLINOIS........

CITY           SKY/WX    TMP DP  RH WIND       PRES   REMARKS
QUINCY         CLOUDY    43  25  49 SW13      29.77F
CHICAGO        CLOUDY    32  22  66 S13       29.85F WCI  22




USA.gov is the U.S. government's official web portal to all federal, state and local government web resources and services.